Location: Linton
(52.0940°N, 0.2850°E)
Time: 02:06:17
(UTC+00:00)

OTV 5 (USA 277) - Visible Passes

Search period start: 24 January 2018 00:00
Search period end: 03 February 2018 00:00
Orbit: 404 x 417 km, 43.0° (Epoch: 07 September)

Date Brightness Start Highest point End Pass type
(mag) Time Alt. Az. Time Alt. Az. Time Alt. Az.
26 Jan ? 18:56:31 10° SSW 18:58:01 15° S 18:58:01 15° S visible
27 Jan ? 18:05:54 10° SSW 18:07:48 14° SSE 18:09:24 11° SE visible
27 Jan ? 19:42:02 10° SW 19:42:09 11° SW 19:42:09 11° SW visible
28 Jan ? 17:15:31 10° S 17:16:57 12° SSE 17:18:22 10° SE visible
28 Jan ? 18:51:07 10° SW 18:53:28 18° S 18:53:32 18° S visible
29 Jan ? 18:00:16 10° SW 18:02:35 17° S 18:04:53 10° SE visible
29 Jan ? 19:37:09 10° SW 19:37:41 12° SW 19:37:41 12° SW visible
30 Jan ? 18:46:03 10° SW 18:48:17 16° S 18:49:06 15° S visible
31 Jan ? 17:55:03 10° SW 17:57:23 17° S 17:59:43 10° SE visible
31 Jan ? 19:33:09 10° SW 19:33:20 10° SSW 19:33:20 10° SSW visible
01 Feb ? 18:41:27 10° SW 18:43:02 13° SSW 18:44:38 10° SSE visible
02 Feb ? 17:50:11 10° SW 17:52:10 15° SSW 17:54:10 10° SSE visible
